Вернуться в каталог

DELTA 1 DEB

АктивенSSO
NORAD 12542·DEBRIS·🇺🇸 United States

Запущен Jul 29, 1976 с Vandenberg Space Force Base

Loading…

Ближайшие Пролёты (ближайшие 24 часа)

TLE

СвежийSource: Space-Track

Эпоха: Sep 14, 2026, 22:31 UTC

1 12542U 76077DX  26257.93848523  .00000018  00000-0  40223-3 0  9998
2 12542 101.9599 242.3105 0060434 112.1689 262.7491 12.52410627 89325

Отслеживайте DELTA 1 DEB в реальном времени с AllMySat

Download on the App Store